Flag for Norway Weather past 2 weeks in Jørpeland, Norway

48 °F

Passing clouds.

Feels Like: 46 °F
Forecast: 42 / 53 °F
Wind: 5 mph from Southeast

Location: Stavanger / Sola

Current Time: Oct 9, 2015 at 6:14:46 AM

Latest Report: Oct 9, 2015 at 5:20 AM

Visibility: N/A

Pressure: 30.18 "Hg

Humidity: 87%

Dew point: 45 °F

Location of JørpelandLocation

Historic Weather in Jørpeland — Graph


Jørpeland temperature yesterday

Maximum temperature yesterday: 55 °F (at 3:20 PM)
Minimum temperature yesterday: 48 °F (at 10:20 PM)
Average temperature yesterday: 52 °F

Past Weeks' High & Low Weather Summary

High63 °F (Oct 5, 2:20 PM)100% (Sep 27, 2:50 AM)30.72 "Hg (Sep 27, 2:50 AM)
Low41 °F (Oct 5, 5:50 AM)47% (Oct 6, 10:20 PM)29.59 "Hg (Sep 24, 2:50 PM)
Average54 °F77%30.18 "Hg
* Reported Sep 24 4:50 AM — Oct 9 4:50 AM, Jørpeland, Weather by CustomWeather, © 2015

Note: Actual official high and low records may vary slightly from our data, if they occured in-between our weather recording intervals... More about our weather records


Jørpeland weather history for previous 24 hours

Time TempWeatherWind HumidityBarometerVisibility
4:50 AM
Fri, Oct 9
48 °FPassing clouds.6 mph87%30.18 "HgN/A
3:50 AM48 °FLight rain. Partly cloudy.1 mph87%30.18 "HgN/A
2:50 AM48 °FLight rain. Partly cloudy.2 mph94%30.18 "HgN/A
1:50 AM48 °FLight rain. Partly cloudy.2 mph87%30.18 "HgN/A
12:50 AM48 °FLight rain. Partly cloudy.1 mph94%30.18 "HgN/A
12:20 AM48 °FLight rain. Partly cloudy.1 mph94%30.18 "HgN/A
11:50 PM
Thu, Oct 8
48 °FLight rain. Partly cloudy.2 mph94%30.18 "HgN/A
11:20 PM48 °FSprinkles. Partly cloudy.2 mph94%30.15 "HgN/A
10:50 PM50 °FLight rain. Passing clouds.2 mph88%30.15 "HgN/A
10:20 PM48 °FLight rain. Partly cloudy.3 mph94%30.15 "HgN/A
9:50 PM50 °FLight rain. Partly cloudy.3 mph88%30.15 "HgN/A
9:20 PM50 °FLight rain. Passing clouds.5 mph82%30.12 "HgN/A
8:50 PM50 °FLight rain. Passing clouds.1 mph82%30.12 "HgN/A
8:20 PM50 °FLight rain. Passing clouds.6 mph82%30.09 "HgN/A
7:50 PM50 °FPartly sunny.2 mph82%30.09 "HgN/A
7:20 PM52 °FDrizzle. Partly sunny.3 mph77%30.09 "HgN/A
6:50 PM52 °FDrizzle. Partly sunny.8 mph72%30.09 "HgN/A
6:20 PM54 °FPartly sunny.8 mph63%30.07 "HgN/A
5:50 PM54 °FPartly sunny.10 mph63%30.07 "HgN/A
5:20 PM54 °FPartly sunny.8 mph63%30.07 "HgN/A
4:50 PM54 °FPartly sunny.8 mph63%30.07 "HgN/A
4:20 PM54 °FPartly sunny.10 mph63%30.04 "HgN/A
3:50 PM55 °FPartly sunny.12 mph59%30.04 "HgN/A
3:20 PM55 °FPartly sunny.13 mph59%30.04 "HgN/A
2:50 PM54 °FBroken clouds.16 mph63%30.01 "HgN/A
2:20 PM54 °FLight rain. Partly sunny.10 mph63%30.01 "HgN/A
1:50 PM54 °FLight rain. Broken clouds.10 mph63%30.01 "HgN/A
1:20 PM52 °FLight rain. Partly sunny.18 mph67%30.01 "HgN/A
12:50 PM54 °FLight rain. Broken clouds.17 mph58%30.01 "HgN/A
12:20 PM54 °FLight rain. Partly sunny.18 mph58%30.01 "HgN/A
11:50 AM54 °FPartly sunny.18 mph58%30.01 "HgN/A
11:20 AM54 °FBroken clouds.13 mph58%30.01 "HgN/A
10:50 AM54 °FLight rain. Broken clouds.14 mph58%30.01 "HgN/A
10:20 AM54 °FBroken clouds.14 mph58%30.01 "HgN/A
9:50 AM52 °FBroken clouds.15 mph62%30.01 "HgN/A
9:20 AM52 °FBroken clouds.14 mph62%29.98 "HgN/A
8:50 AM52 °FPartly cloudy.12 mph58%29.98 "HgN/A
8:20 AM52 °FPartly cloudy.12 mph62%29.95 "HgN/A
7:50 AM52 °FPartly cloudy.10 mph62%29.98 "HgN/A
7:20 AM52 °FPartly cloudy.12 mph62%29.98 "HgN/A
6:50 AM52 °FPartly cloudy.10 mph62%29.98 "HgN/A
6:20 AM52 °FPartly cloudy.14 mph62%29.98 "HgN/A
Weather by CustomWeather, © 2015

See weather overviewHow to use our weather pages